ASA92 KATL-PANC

Flight info

Callsign ASA92
Flight time 7h 35m
Altitude 38000
Route PENCL2 JAACE BNA J45 LAJUG Q19 DSM ABR ISN ITREK IGVUX/N0487F400 YQU 57N125W DEEJA NCA10 YAK J501 JOH YESKA6
Aircraft B789/H-SDE1E2E3FGHIJ2J3J4J5M1RWXY/LB1D1

Departure

Time 2026-05-03 23:29
Airport Hartsfield Jackson Atlanta International Airport (KATL)

Arrival

Time 2026-05-04 07:04
Airport Ted Stevens Anchorage International Airport (PANC)
Time Latitude Longitude Altitude Speed Heading
2026-05-03 22:47 33.64401 -84.42646 1012 ft 0 kts 90°
2026-05-03 23:16 33.64402 -84.42666 1012 ft 4 kts 90°
2026-05-03 23:16 33.64399 -84.42697 1012 ft 5 kts 69°
2026-05-03 23:16 33.64385 -84.42723 1012 ft 6 kts 34°
2026-05-03 23:17 33.64365 -84.42733 1012 ft 4 kts 360°
2026-05-03 23:17 33.64364 -84.42733 1012 ft 7 kts 360°
2026-05-03 23:21 33.64391 -84.42732 1012 ft 9 kts
2026-05-03 23:21 33.64462 -84.42695 1012 ft 12 kts 60°
2026-05-03 23:22 33.64469 -84.42465 1011 ft 16 kts 90°
2026-05-03 23:22 33.64468 -84.42321 1011 ft 18 kts 90°
2026-05-03 23:22 33.64507 -84.42188 1011 ft 16 kts 60°
2026-05-03 23:23 33.64543 -84.42063 1011 ft 16 kts 88°
2026-05-03 23:23 33.64543 -84.41931 1011 ft 17 kts 90°
2026-05-03 23:23 33.64543 -84.41776 1011 ft 20 kts 90°
2026-05-03 23:23 33.64543 -84.41595 1012 ft 23 kts 90°
2026-05-03 23:24 33.64542 -84.41388 1012 ft 26 kts 90°
2026-05-03 23:24 33.64541 -84.41162 1012 ft 27 kts 90°
2026-05-03 23:24 33.64543 -84.40943 1011 ft 25 kts 90°
2026-05-03 23:24 33.64563 -84.40774 1011 ft 20 kts 76°
2026-05-03 23:25 33.64569 -84.40630 1011 ft 9 kts 91°
2026-05-03 23:25 33.64575 -84.40599 1011 ft 0 kts 58°
2026-05-03 23:26 33.64577 -84.40597 1011 ft 3 kts 55°
2026-05-03 23:27 33.64624 -84.40572 1010 ft 10 kts
2026-05-03 23:27 33.64674 -84.40607 1009 ft 7 kts 296°
2026-05-03 23:27 33.64679 -84.40639 1009 ft 0 kts 273°
2026-05-03 23:27 33.64679 -84.40658 1009 ft 9 kts 272°
2026-05-03 23:28 33.64680 -84.40930 1012 ft 65 kts 269°
2026-05-03 23:28 33.64679 -84.41750 1013 ft 130 kts 270°
2026-05-03 23:28 33.64679 -84.43061 1030 ft 180 kts 269°
2026-05-03 23:28 33.64700 -84.44618 1573 ft 190 kts 271°
2026-05-03 23:29 33.64765 -84.46268 2227 ft 204 kts 279°
2026-05-03 23:29 33.65318 -84.47846 2918 ft 207 kts 296°
2026-05-03 23:29 33.65919 -84.49419 3656 ft 206 kts 294°
2026-05-03 23:29 33.66505 -84.50963 4365 ft 207 kts 295°
2026-05-03 23:30 33.67119 -84.52555 4966 ft 213 kts 295°
2026-05-03 23:30 33.67756 -84.54197 5542 ft 221 kts 295°
2026-05-03 23:30 33.68424 -84.55916 5975 ft 235 kts 296°
2026-05-03 23:30 33.69511 -84.57512 6012 ft 264 kts 326°
2026-05-03 23:31 33.71293 -84.58221 5952 ft 282 kts 357°
2026-05-03 23:31 33.73264 -84.58212 5998 ft 287 kts
2026-05-03 23:31 33.75276 -84.58136 5988 ft 290 kts
2026-05-03 23:31 33.77291 -84.58097 5996 ft 289 kts 359°
2026-05-03 23:32 33.79331 -84.58088 6013 ft 304 kts 359°
2026-05-03 23:32 33.81528 -84.58094 6461 ft 325 kts 356°
2026-05-03 23:32 33.83843 -84.58187 7061 ft 341 kts 358°
2026-05-03 23:32 33.86226 -84.58617 7628 ft 354 kts 344°
2026-05-03 23:33 33.88624 -84.59379 8239 ft 367 kts 345°
2026-05-03 23:33 33.91136 -84.60183 8863 ft 380 kts 344°
2026-05-03 23:33 33.93719 -84.61027 9529 ft 390 kts 344°
2026-05-03 23:33 33.96381 -84.61889 10166 ft 399 kts 344°
2026-05-03 23:34 33.99057 -84.62747 11130 ft 396 kts 343°
2026-05-03 23:34 34.01711 -84.63603 12158 ft 393 kts 343°
2026-05-03 23:34 34.04347 -84.64457 13203 ft 390 kts 343°
2026-05-03 23:34 34.06966 -84.65306 14230 ft 388 kts 343°
2026-05-03 23:35 34.09562 -84.66146 15184 ft 384 kts 343°
2026-05-03 23:35 34.12133 -84.66978 16162 ft 380 kts 342°
2026-05-03 23:35 34.14640 -84.67790 17158 ft 376 kts 342°
2026-05-03 23:35 34.17149 -84.68604 18182 ft 370 kts 342°
2026-05-03 23:36 34.19618 -84.69405 19120 ft 364 kts 342°
2026-05-03 23:36 34.22070 -84.70203 19757 ft 368 kts 341°
2026-05-03 23:36 34.24559 -84.71014 20310 ft 372 kts 341°
2026-05-03 23:36 34.26991 -84.71956 20872 ft 373 kts 336°
2026-05-03 23:37 34.29447 -84.73003 21451 ft 376 kts 338°
2026-05-03 23:37 34.31937 -84.74028 22058 ft 379 kts 338°
2026-05-03 23:37 34.34435 -84.75076 22673 ft 380 kts 337°
2026-05-03 23:37 34.36933 -84.76143 23305 ft 381 kts 337°
2026-05-03 23:38 34.39436 -84.77206 23907 ft 382 kts 337°
2026-05-03 23:38 34.41953 -84.78268 24442 ft 381 kts 337°
2026-05-03 23:38 34.44454 -84.79325 24983 ft 380 kts 337°
2026-05-03 23:38 34.46951 -84.80384 25542 ft 379 kts 337°
2026-05-03 23:39 34.49438 -84.81440 26101 ft 377 kts 337°
2026-05-03 23:39 34.51882 -84.82478 26653 ft 375 kts 337°
2026-05-03 23:39 34.54335 -84.83519 27243 ft 372 kts 337°
2026-05-03 23:39 34.56773 -84.84555 27831 ft 369 kts 337°
2026-05-03 23:40 34.59186 -84.85581 28433 ft 366 kts 337°
2026-05-03 23:40 34.61574 -84.86597 29035 ft 361 kts 337°
2026-05-03 23:40 34.63932 -84.87600 29664 ft 357 kts 336°
2026-05-03 23:40 34.66258 -84.88591 30263 ft 351 kts 336°
2026-05-03 23:41 34.68545 -84.89566 30772 ft 345 kts 336°
2026-05-03 23:41 34.70787 -84.90522 31295 ft 338 kts 336°
2026-05-03 23:41 34.72979 -84.91457 31801 ft 330 kts 336°
2026-05-03 23:41 34.75120 -84.92371 32296 ft 321 kts 336°
2026-05-03 23:42 34.77213 -84.93266 32613 ft 318 kts 335°
2026-05-03 23:42 34.79318 -84.94170 32585 ft 325 kts 336°
2026-05-03 23:42 34.81463 -84.95091 32483 ft 335 kts 336°
2026-05-03 23:42 34.83676 -84.96035 32630 ft 337 kts 336°
2026-05-03 23:43 34.85867 -84.96967 33067 ft 329 kts 336°
2026-05-03 23:43 34.88005 -84.97881 33471 ft 324 kts 335°
2026-05-03 23:43 34.91582 -84.99425 33469 ft 334 kts 335°
2026-05-03 23:44 34.96771 -85.01645 33771 ft 337 kts 335°
2026-05-03 23:44 34.98255 -85.02280 34064 ft 332 kts 335°
2026-05-03 23:44 35.00422 -85.03213 34305 ft 329 kts 335°
2026-05-03 23:45 35.04806 -85.05109 34181 ft 344 kts 335°
2026-05-03 23:45 35.07075 -85.06080 34335 ft 343 kts 335°
2026-05-03 23:45 35.09305 -85.07043 34702 ft 335 kts 332°
2026-05-03 23:46 35.11321 -85.08390 34758 ft 330 kts 317°
2026-05-03 23:46 35.13016 -85.10318 34485 ft 339 kts 304°
2026-05-03 23:46 35.15902 -85.14756 35014 ft 329 kts 306°
2026-05-03 23:47 35.17290 -85.16893 35659 ft 314 kts 305°
2026-05-03 23:47 35.18623 -85.18950 35852 ft 313 kts 305°
2026-05-03 23:47 35.20004 -85.21087 35506 ft 328 kts 305°
2026-05-03 23:47 35.21457 -85.23329 35143 ft 343 kts 306°
2026-05-03 23:48 35.22943 -85.25614 35335 ft 341 kts 306°
2026-05-03 23:48 35.24390 -85.27839 35972 ft 326 kts 305°
2026-05-03 23:48 35.25771 -85.29973 36415 ft 316 kts 304°
2026-05-03 23:48 35.27143 -85.32104 36287 ft 324 kts 305°
2026-05-03 23:49 35.28576 -85.34329 35857 ft 340 kts 305°
2026-05-03 23:49 35.30069 -85.36634 35742 ft 347 kts 305°
2026-05-03 23:49 35.31558 -85.38929 36188 ft 337 kts 305°
2026-05-03 23:49 35.32982 -85.41132 36781 ft 323 kts 304°
2026-05-03 23:50 35.34365 -85.43285 36903 ft 323 kts 305°
2026-05-03 23:50 35.35759 -85.45458 36579 ft 335 kts 305°
2026-05-03 23:50 35.37239 -85.47756 36283 ft 347 kts 306°
2026-05-03 23:50 35.38739 -85.50077 36454 ft 345 kts 305°
2026-05-03 23:51 35.40200 -85.52343 37004 ft 332 kts 305°
2026-05-03 23:51 35.41611 -85.54540 37359 ft 325 kts 305°
2026-05-03 23:51 35.43020 -85.56741 37220 ft 333 kts 305°
2026-05-03 23:51 35.44476 -85.59016 36851 ft 346 kts 305°
2026-05-03 23:52 35.47487 -85.63700 36967 ft 349 kts 305°
2026-05-03 23:52 35.48985 -85.66039 37127 ft 348 kts 305°
2026-05-03 23:52 35.50476 -85.68370 37259 ft 347 kts 305°
2026-05-03 23:53 35.53433 -85.72994 37428 ft 347 kts 305°
2026-05-03 23:53 35.56420 -85.77668 37566 ft 348 kts 305°
2026-05-03 23:54 35.59418 -85.82361 37695 ft 350 kts 305°
2026-05-03 23:54 35.62435 -85.87091 37821 ft 352 kts 304°
2026-05-03 23:55 35.65459 -85.91839 37944 ft 353 kts 304°
2026-05-03 23:55 35.68481 -85.96592 37979 ft 357 kts 304°
2026-05-03 23:56 35.71570 -86.01455 37992 ft 363 kts 304°
2026-05-03 23:56 35.74711 -86.06407 38010 ft 370 kts 304°
2026-05-03 23:57 35.77909 -86.11458 38004 ft 378 kts 304°
2026-05-03 23:57 35.81177 -86.16625 38016 ft 386 kts 304°
2026-05-03 23:58 35.84510 -86.21903 38020 ft 394 kts 305°
2026-05-03 23:58 35.87913 -86.27302 37979 ft 403 kts 305°
2026-05-03 23:59 35.91394 -86.32831 37976 ft 412 kts 305°
2026-05-03 23:59 35.94921 -86.38443 37979 ft 421 kts 305°
2026-05-04 00:00 35.98544 -86.44220 38001 ft 429 kts 305°
2026-05-04 00:00 36.02236 -86.50112 38005 ft 438 kts 305°
2026-05-04 00:01 36.05997 -86.56128 38005 ft 446 kts 305°
2026-05-04 00:01 36.09792 -86.62206 37993 ft 446 kts 305°
2026-05-04 00:02 36.13589 -86.68275 37969 ft 446 kts 308°
2026-05-04 00:02 36.17798 -86.73863 37969 ft 447 kts 310°
2026-05-04 00:03 36.22048 -86.79489 37947 ft 447 kts 310°
2026-05-04 00:03 36.26282 -86.85070 37950 ft 442 kts 310°
2026-05-04 00:04 36.30486 -86.90643 37952 ft 443 kts 310°
2026-05-04 00:04 36.34709 -86.96238 37951 ft 444 kts 310°
2026-05-04 00:05 36.38895 -87.01796 37957 ft 442 kts 310°
2026-05-04 00:05 36.43087 -87.07373 37955 ft 441 kts 310°
2026-05-04 00:06 36.47274 -87.12952 37995 ft 441 kts 310°
2026-05-04 00:06 36.51423 -87.18491 37967 ft 439 kts 310°
2026-05-04 00:07 36.55580 -87.24050 37954 ft 439 kts 310°
2026-05-04 00:07 36.59743 -87.29624 37933 ft 439 kts 310°
2026-05-04 00:08 36.63893 -87.35193 37928 ft 438 kts 310°
2026-05-04 00:08 36.68030 -87.40753 37926 ft 437 kts 310°
2026-05-04 00:09 36.72134 -87.46279 37919 ft 437 kts 310°
2026-05-04 00:09 36.76257 -87.51839 37912 ft 435 kts 310°
2026-05-04 00:10 36.80359 -87.57381 37917 ft 435 kts 310°
2026-05-04 00:10 36.84475 -87.62949 37918 ft 436 kts 310°
2026-05-04 00:11 36.88580 -87.68514 37920 ft 436 kts 310°
2026-05-04 00:11 36.92686 -87.74090 37917 ft 435 kts 310°
2026-05-04 00:12 36.96775 -87.79651 37921 ft 433 kts 310°
2026-05-04 00:12 37.00828 -87.85174 37916 ft 432 kts 310°
2026-05-04 00:13 37.04884 -87.90709 37905 ft 431 kts 310°
2026-05-04 00:13 37.08943 -87.96259 37907 ft 432 kts 310°
2026-05-04 00:14 37.13006 -88.01823 37905 ft 433 kts 310°
2026-05-04 00:14 37.17078 -88.07409 37909 ft 434 kts 310°
2026-05-04 00:15 37.21115 -88.12957 37904 ft 430 kts 310°
2026-05-04 00:15 37.25137 -88.18493 37887 ft 428 kts 310°
2026-05-04 00:16 37.29146 -88.24022 37888 ft 428 kts 310°
2026-05-04 00:16 37.33157 -88.29561 37882 ft 429 kts 310°
2026-05-04 00:17 37.37174 -88.35119 37877 ft 429 kts 310°
2026-05-04 00:17 37.41156 -88.40638 37886 ft 429 kts 310°
2026-05-04 00:18 37.45077 -88.46083 37873 ft 429 kts 310°
2026-05-04 00:18 37.49070 -88.51635 37875 ft 428 kts 310°
2026-05-04 00:19 37.53054 -88.57187 37873 ft 427 kts 310°
2026-05-04 00:19 37.57038 -88.62746 37871 ft 427 kts 310°
2026-05-04 00:20 37.61031 -88.68327 37876 ft 428 kts 310°
2026-05-04 00:20 37.65017 -88.73908 37864 ft 428 kts 310°
2026-05-04 00:21 37.68978 -88.79461 37860 ft 428 kts 310°
2026-05-04 00:21 37.72967 -88.85064 37848 ft 428 kts 310°
2026-05-04 00:22 37.76927 -88.90634 37846 ft 423 kts 310°
2026-05-04 00:22 37.80855 -88.96171 37844 ft 423 kts 310°
2026-05-04 00:23 37.84775 -89.01708 37843 ft 423 kts 310°
2026-05-04 00:23 37.88677 -89.07230 37833 ft 423 kts 310°
2026-05-04 00:24 37.92605 -89.12797 37835 ft 423 kts 310°
2026-05-04 00:24 37.96530 -89.18371 37834 ft 424 kts 310°
2026-05-04 00:25 38.00441 -89.23934 37785 ft 422 kts 310°
2026-05-04 00:25 38.04334 -89.29481 37810 ft 421 kts 310°
2026-05-04 00:26 38.08204 -89.35004 37820 ft 422 kts 310°
2026-05-04 00:26 38.12103 -89.40579 37813 ft 422 kts 310°
2026-05-04 00:27 38.16002 -89.46164 37806 ft 423 kts 310°
2026-05-04 00:27 38.19904 -89.51763 37816 ft 424 kts 310°
2026-05-04 00:28 38.23812 -89.57380 37804 ft 424 kts 310°
2026-05-04 00:28 38.27712 -89.62996 37801 ft 423 kts 310°
2026-05-04 00:29 38.31601 -89.68605 37790 ft 422 kts 310°
2026-05-04 00:29 38.35482 -89.74213 37770 ft 421 kts 310°
2026-05-04 00:30 38.39330 -89.79783 37765 ft 421 kts 310°
2026-05-04 00:30 38.43209 -89.85407 37764 ft 422 kts 310°
2026-05-04 00:31 38.47091 -89.91047 37767 ft 423 kts 310°
2026-05-04 00:31 38.50320 -89.95744 37772 ft 424 kts 310°
2026-05-04 00:32 38.54203 -90.01403 37769 ft 424 kts 309°
2026-05-04 00:32 38.58099 -90.07091 37767 ft 425 kts 309°
2026-05-04 00:33 38.63926 -90.15616 37768 ft 424 kts 309°
2026-05-04 00:34 38.67804 -90.21304 37764 ft 425 kts 309°
2026-05-04 00:34 38.71694 -90.27019 37763 ft 425 kts 309°
2026-05-04 00:35 38.75556 -90.32704 37764 ft 425 kts 309°
2026-05-04 00:35 38.79437 -90.38426 37750 ft 425 kts 309°
2026-05-04 00:36 38.83296 -90.44125 37737 ft 421 kts 309°
2026-05-04 00:36 38.87276 -90.49633 37752 ft 422 kts 315°
2026-05-04 00:37 38.91640 -90.54725 37741 ft 427 kts 315°
2026-05-04 00:37 38.96053 -90.59878 37748 ft 428 kts 315°
2026-05-04 00:38 39.00456 -90.65030 37749 ft 428 kts 315°
2026-05-04 00:38 39.04836 -90.70164 37743 ft 428 kts 315°
2026-05-04 00:39 39.09236 -90.75330 37740 ft 427 kts 315°
2026-05-04 00:39 39.13613 -90.80480 37723 ft 425 kts 315°
2026-05-04 00:40 39.17970 -90.85614 37731 ft 424 kts 315°
2026-05-04 00:40 39.22295 -90.90719 37729 ft 424 kts 315°
2026-05-04 00:41 39.26640 -90.95857 37732 ft 424 kts 315°
2026-05-04 00:41 39.30989 -91.01008 37734 ft 424 kts 315°
2026-05-04 00:42 39.35309 -91.06135 37755 ft 424 kts 315°
2026-05-04 00:42 39.39647 -91.11292 37795 ft 422 kts 315°
2026-05-04 00:43 39.43963 -91.16432 37834 ft 421 kts 315°
2026-05-04 00:43 39.48282 -91.21585 37847 ft 422 kts 315°
2026-05-04 00:44 39.52584 -91.26726 37855 ft 423 kts 315°
2026-05-04 00:44 39.56912 -91.31908 37772 ft 423 kts 315°
2026-05-04 00:45 39.61262 -91.37125 37765 ft 427 kts 315°
2026-05-04 00:45 39.65618 -91.42358 37773 ft 427 kts 315°
2026-05-04 00:46 39.69973 -91.47599 37778 ft 426 kts 315°
2026-05-04 00:46 39.74322 -91.52837 37747 ft 426 kts 314°
2026-05-04 00:47 39.78623 -91.58031 37771 ft 424 kts 314°
2026-05-04 00:47 39.82961 -91.63277 37767 ft 427 kts 315°
2026-05-04 00:48 39.87315 -91.68550 37765 ft 427 kts 315°
2026-05-04 00:48 39.91576 -91.73723 37763 ft 428 kts 315°
2026-05-04 00:49 39.95931 -91.79018 37765 ft 428 kts 314°
2026-05-04 00:49 40.00278 -91.84314 37765 ft 428 kts 314°
2026-05-04 00:50 40.04634 -91.89629 37770 ft 429 kts 315°
2026-05-04 00:50 40.08962 -91.94920 37759 ft 426 kts 314°
2026-05-04 00:51 40.13288 -92.00219 37759 ft 426 kts 314°
2026-05-04 00:51 40.17606 -92.05516 37757 ft 425 kts 314°
2026-05-04 00:52 40.21915 -92.10814 37751 ft 425 kts 314°
2026-05-04 00:52 40.26236 -92.16136 37758 ft 427 kts 314°
2026-05-04 00:53 40.30569 -92.21483 37749 ft 428 kts 314°
2026-05-04 00:53 40.34871 -92.26804 37766 ft 428 kts 314°
2026-05-04 00:54 40.39223 -92.32195 37758 ft 427 kts 314°
2026-05-04 00:54 40.43502 -92.37508 37752 ft 426 kts 314°
2026-05-04 00:55 40.47818 -92.42876 37754 ft 428 kts 314°
2026-05-04 00:55 40.52147 -92.48270 37756 ft 430 kts 314°
2026-05-04 00:56 40.56490 -92.53690 37746 ft 430 kts 314°
2026-05-04 00:56 40.60818 -92.59102 37747 ft 428 kts 314°
2026-05-04 00:57 40.65109 -92.64480 37748 ft 428 kts 314°
2026-05-04 00:57 40.69424 -92.69896 37750 ft 428 kts 314°
2026-05-04 00:58 40.73726 -92.75307 37748 ft 427 kts 314°
2026-05-04 00:58 40.78029 -92.80730 37747 ft 428 kts 314°
2026-05-04 00:59 40.82329 -92.86158 37748 ft 428 kts 314°
2026-05-04 00:59 40.86636 -92.91605 37751 ft 429 kts 314°
2026-05-04 01:00 40.90960 -92.97085 37738 ft 431 kts 314°
2026-05-04 01:00 40.95254 -93.02535 37739 ft 430 kts 314°
2026-05-04 01:01 40.99571 -93.08026 37733 ft 429 kts 314°
2026-05-04 01:01 41.03870 -93.13506 37728 ft 429 kts 314°
2026-05-04 01:02 41.08164 -93.18988 37735 ft 428 kts 313°
2026-05-04 01:02 41.12475 -93.24505 37745 ft 433 kts 313°
2026-05-04 01:03 41.16794 -93.30039 37740 ft 434 kts 313°
2026-05-04 01:03 41.21139 -93.35621 37746 ft 434 kts 313°
2026-05-04 01:04 41.25475 -93.41199 37742 ft 434 kts 313°
2026-05-04 01:04 41.29814 -93.46795 37765 ft 434 kts 313°
2026-05-04 01:05 41.34165 -93.52416 37736 ft 439 kts 314°
2026-05-04 01:05 41.38543 -93.58082 37737 ft 438 kts 313°
2026-05-04 01:06 41.42905 -93.63739 37729 ft 437 kts 314°
2026-05-04 01:06 41.47569 -93.68970 37729 ft 438 kts 317°
2026-05-04 01:07 41.52263 -93.74107 37729 ft 441 kts 318°
2026-05-04 01:07 41.57058 -93.79320 37732 ft 444 kts 318°
2026-05-04 01:08 41.61836 -93.84547 37725 ft 442 kts 318°
2026-05-04 01:08 41.66595 -93.89754 37720 ft 442 kts 318°
2026-05-04 01:09 41.71322 -93.94941 37740 ft 441 kts 318°
2026-05-04 01:09 41.76103 -94.00195 37720 ft 446 kts 318°
2026-05-04 01:10 41.80899 -94.05476 37721 ft 446 kts 318°
2026-05-04 01:10 41.85693 -94.10766 37723 ft 445 kts 318°
2026-05-04 01:11 41.90439 -94.16014 37719 ft 445 kts 318°
2026-05-04 01:11 41.95237 -94.21329 37716 ft 448 kts 318°
2026-05-04 01:12 42.00054 -94.26676 37720 ft 449 kts 318°
2026-05-04 01:12 42.04876 -94.32040 37729 ft 449 kts 318°
2026-05-04 01:13 42.09652 -94.37363 37745 ft 448 kts 318°
2026-05-04 01:13 42.14467 -94.42742 37763 ft 450 kts 318°
2026-05-04 01:14 42.19289 -94.48138 37750 ft 451 kts 318°
2026-05-04 01:14 42.24113 -94.53548 37758 ft 451 kts 318°
2026-05-04 01:15 42.28911 -94.58940 37752 ft 451 kts 318°
2026-05-04 01:15 42.33744 -94.64382 37743 ft 454 kts 318°
2026-05-04 01:16 42.38593 -94.69853 37744 ft 453 kts 318°
2026-05-04 01:16 42.43428 -94.75321 37734 ft 453 kts 318°
2026-05-04 01:17 42.48259 -94.80795 37731 ft 452 kts 318°
2026-05-04 01:17 42.53075 -94.86264 37735 ft 453 kts 318°
2026-05-04 01:18 42.57912 -94.91767 37730 ft 454 kts 318°
2026-05-04 01:18 42.62756 -94.97290 37739 ft 454 kts 318°
2026-05-04 01:19 42.67577 -95.02799 37728 ft 456 kts 318°
2026-05-04 01:19 42.71612 -95.07418 37729 ft 456 kts 318°
2026-05-04 01:20 42.76470 -95.12992 37727 ft 456 kts 318°
2026-05-04 01:20 42.81221 -95.18452 37724 ft 455 kts 318°
2026-05-04 01:21 42.86055 -95.24021 37720 ft 455 kts 318°
2026-05-04 01:21 42.90887 -95.29600 37727 ft 455 kts 318°
2026-05-04 01:22 42.95726 -95.35196 37713 ft 456 kts 318°
2026-05-04 01:22 43.00544 -95.40783 37730 ft 458 kts 318°
2026-05-04 01:23 43.05400 -95.46424 37714 ft 457 kts 318°
2026-05-04 01:23 43.10242 -95.52062 37728 ft 456 kts 318°
2026-05-04 01:24 43.15065 -95.57688 37717 ft 454 kts 318°
2026-05-04 01:24 43.19851 -95.63285 37698 ft 455 kts 318°
2026-05-04 01:25 43.24676 -95.68938 37697 ft 457 kts 318°
2026-05-04 01:25 43.29513 -95.74620 37706 ft 458 kts 318°
2026-05-04 01:26 43.34349 -95.80310 37703 ft 456 kts 318°
2026-05-04 01:26 43.39154 -95.85978 37701 ft 455 kts 318°
2026-05-04 01:27 43.43962 -95.91661 37704 ft 455 kts 318°
2026-05-04 01:27 43.48732 -95.97311 37722 ft 455 kts 318°
2026-05-04 01:28 43.53519 -96.02994 37719 ft 453 kts 318°
2026-05-04 01:28 43.58301 -96.08684 37716 ft 454 kts 318°
2026-05-04 01:29 43.63091 -96.14395 37701 ft 456 kts 318°
2026-05-04 01:29 43.67895 -96.20136 37707 ft 456 kts 318°
2026-05-04 01:30 43.72677 -96.25862 37707 ft 453 kts 318°
2026-05-04 01:30 43.77407 -96.31540 37704 ft 452 kts 318°
2026-05-04 01:31 43.82158 -96.37253 37701 ft 452 kts 318°
2026-05-04 01:31 43.86837 -96.42895 37715 ft 454 kts 318°
2026-05-04 01:32 43.91603 -96.48652 37695 ft 454 kts 318°
2026-05-04 01:32 43.96347 -96.54396 37703 ft 456 kts 318°
2026-05-04 01:33 44.01129 -96.60198 37713 ft 456 kts 318°
2026-05-04 01:33 44.05906 -96.66007 37713 ft 455 kts 317°
2026-05-04 01:34 44.10678 -96.71824 37711 ft 455 kts 317°
2026-05-04 01:34 44.15412 -96.77606 37710 ft 455 kts 317°
2026-05-04 01:35 44.20170 -96.83432 37718 ft 455 kts 317°
2026-05-04 01:35 44.24930 -96.89273 37718 ft 457 kts 317°
2026-05-04 01:36 44.29717 -96.95160 37717 ft 458 kts 317°
2026-05-04 01:36 44.34489 -97.01042 37700 ft 457 kts 317°
2026-05-04 01:37 44.39228 -97.06896 37705 ft 457 kts 317°
2026-05-04 01:37 44.43999 -97.12803 37705 ft 457 kts 318°
2026-05-04 01:38 44.48747 -97.18695 37690 ft 455 kts 318°
2026-05-04 01:38 44.53480 -97.24583 37690 ft 456 kts 318°
2026-05-04 01:39 44.58233 -97.30508 37689 ft 457 kts 318°
2026-05-04 01:39 44.62957 -97.36410 37690 ft 458 kts 318°
2026-05-04 01:40 44.67717 -97.42371 37682 ft 457 kts 318°
2026-05-04 01:40 44.72455 -97.48318 37677 ft 456 kts 317°
2026-05-04 01:41 44.77179 -97.54262 37677 ft 452 kts 318°
2026-05-04 01:41 44.81848 -97.60148 37663 ft 450 kts 318°
2026-05-04 01:42 44.86517 -97.66049 37669 ft 452 kts 318°
2026-05-04 01:42 44.91208 -97.71990 37669 ft 454 kts 318°
2026-05-04 01:43 44.95886 -97.77930 37666 ft 448 kts 318°
2026-05-04 01:43 45.00454 -97.83742 37647 ft 444 kts 318°
2026-05-04 01:44 45.05054 -97.89609 37647 ft 446 kts 318°
2026-05-04 01:44 45.09660 -97.95496 37651 ft 447 kts 318°
2026-05-04 01:45 45.14254 -98.01382 37650 ft 441 kts 318°
2026-05-04 01:45 45.21018 -98.10071 37638 ft 440 kts 318°
2026-05-04 01:46 45.25556 -98.15917 37634 ft 441 kts 318°
2026-05-04 01:46 45.30100 -98.21784 37637 ft 440 kts 318°
2026-05-04 01:47 45.34612 -98.27624 37627 ft 437 kts 318°
2026-05-04 01:47 45.39072 -98.33408 37620 ft 436 kts 318°
2026-05-04 01:48 45.43306 -98.39586 37633 ft 438 kts 310°
2026-05-04 01:48 45.47190 -98.46289 37634 ft 439 kts 310°
2026-05-04 01:49 45.51053 -98.52993 37636 ft 436 kts 310°
2026-05-04 01:49 45.54903 -98.59677 37632 ft 435 kts 310°
2026-05-04 01:50 45.58746 -98.66371 37628 ft 436 kts 310°
2026-05-04 01:50 45.62584 -98.73070 37618 ft 436 kts 310°
2026-05-04 01:51 45.66422 -98.79787 37615 ft 435 kts 309°
2026-05-04 01:51 45.70243 -98.86488 37603 ft 434 kts 309°
2026-05-04 01:52 45.74031 -98.93148 37605 ft 435 kts 309°
2026-05-04 01:52 45.77854 -98.99886 37606 ft 436 kts 309°
2026-05-04 01:53 45.81680 -99.06642 37619 ft 436 kts 309°
2026-05-04 01:53 45.85491 -99.13394 37608 ft 435 kts 309°
2026-05-04 01:54 45.89303 -99.20159 37595 ft 436 kts 309°
2026-05-04 01:54 45.93117 -99.26947 37595 ft 437 kts 309°
2026-05-04 01:55 45.96935 -99.33756 37592 ft 436 kts 309°
2026-05-04 01:55 46.00732 -99.40546 37582 ft 434 kts 308°
2026-05-04 01:56 46.04485 -99.47274 37572 ft 433 kts 308°
2026-05-04 01:56 46.08255 -99.54047 37574 ft 434 kts 308°
2026-05-04 01:57 46.12034 -99.60854 37582 ft 435 kts 308°
2026-05-04 01:57 46.15820 -99.67690 37585 ft 436 kts 308°
2026-05-04 01:58 46.19595 -99.74525 37566 ft 434 kts 308°
2026-05-04 01:58 46.23347 -99.81331 37559 ft 433 kts 308°
2026-05-04 01:59 46.27076 -99.88114 37562 ft 433 kts 308°
2026-05-04 01:59 46.30823 -99.94947 37557 ft 433 kts 308°
2026-05-04 02:00 46.34571 -100.01798 37562 ft 433 kts 308°
2026-05-04 02:00 46.38316 -100.08660 37552 ft 433 kts 308°
2026-05-04 02:01 46.42025 -100.15473 37565 ft 433 kts 308°
2026-05-04 02:01 46.45759 -100.22348 37566 ft 434 kts 308°
2026-05-04 02:02 46.49496 -100.29246 37570 ft 434 kts 308°
2026-05-04 02:02 46.53218 -100.36134 37553 ft 431 kts 307°
2026-05-04 02:03 46.56833 -100.42840 37536 ft 429 kts 307°
2026-05-04 02:03 46.60513 -100.49684 37530 ft 430 kts 307°
2026-05-04 02:04 46.64196 -100.56550 37520 ft 429 kts 307°
2026-05-04 02:04 46.67853 -100.63384 37521 ft 430 kts 307°
2026-05-04 02:05 46.71546 -100.70303 37515 ft 428 kts 307°
2026-05-04 02:05 46.75169 -100.77107 37513 ft 427 kts 307°
2026-05-04 02:06 46.78815 -100.83973 37516 ft 428 kts 307°
2026-05-04 02:06 46.81845 -100.89689 37521 ft 429 kts 307°
2026-05-04 02:07 46.85496 -100.96595 37526 ft 429 kts 307°
2026-05-04 02:07 46.89139 -101.03503 37529 ft 427 kts 307°
2026-05-04 02:08 46.92753 -101.10372 37489 ft 425 kts 307°
2026-05-04 02:08 46.96341 -101.17209 37532 ft 427 kts 307°
2026-05-04 02:09 46.99959 -101.24121 37539 ft 427 kts 307°
2026-05-04 02:09 47.03569 -101.31035 37563 ft 426 kts 306°
2026-05-04 02:10 47.07168 -101.37944 37515 ft 425 kts 306°
2026-05-04 02:10 47.10753 -101.44843 37520 ft 424 kts 306°
2026-05-04 02:11 47.14316 -101.51719 37504 ft 426 kts 306°
2026-05-04 02:11 47.17911 -101.58673 37507 ft 428 kts 306°
2026-05-04 02:12 47.21512 -101.65656 37524 ft 427 kts 306°
2026-05-04 02:12 47.25094 -101.72620 37492 ft 426 kts 306°
2026-05-04 02:13 47.28665 -101.79580 37490 ft 425 kts 306°
2026-05-04 02:13 47.32226 -101.86538 37498 ft 426 kts 306°
2026-05-04 02:14 47.35772 -101.93485 37497 ft 426 kts 306°
2026-05-04 02:14 47.39338 -102.00489 37511 ft 426 kts 306°
2026-05-04 02:15 47.42874 -102.07451 37500 ft 422 kts 306°
2026-05-04 02:15 47.46395 -102.14402 37497 ft 422 kts 306°
2026-05-04 02:16 47.49914 -102.21366 37489 ft 423 kts 305°
2026-05-04 02:16 47.53416 -102.28313 37493 ft 423 kts 305°
2026-05-04 02:17 47.56935 -102.35312 37492 ft 424 kts 305°
2026-05-04 02:17 47.60445 -102.42311 37491 ft 422 kts 305°
2026-05-04 02:18 47.63939 -102.49297 37489 ft 421 kts 305°
2026-05-04 02:18 47.67427 -102.56287 37488 ft 422 kts 305°
2026-05-04 02:19 47.70917 -102.63300 37492 ft 423 kts 305°
2026-05-04 02:19 47.74409 -102.70336 37489 ft 423 kts 304°
2026-05-04 02:20 47.77904 -102.77397 37498 ft 424 kts 304°
2026-05-04 02:20 47.81396 -102.84466 37499 ft 424 kts 304°
2026-05-04 02:21 47.84858 -102.91496 37494 ft 423 kts 304°
2026-05-04 02:21 47.88331 -102.98566 37501 ft 423 kts 304°
2026-05-04 02:22 47.91797 -103.05638 37509 ft 423 kts 304°
2026-05-04 02:22 47.95257 -103.12718 37502 ft 422 kts 304°
2026-05-04 02:23 47.98720 -103.19823 37512 ft 423 kts 304°
2026-05-04 02:23 48.02183 -103.26944 37518 ft 424 kts 304°
2026-05-04 02:24 48.05651 -103.34096 37523 ft 425 kts 304°
2026-05-04 02:24 48.09084 -103.41195 37523 ft 426 kts 304°
2026-05-04 02:25 48.12552 -103.48383 37523 ft 425 kts 304°
2026-05-04 02:25 48.16004 -103.55559 37521 ft 424 kts 304°
2026-05-04 02:26 48.19432 -103.62702 37520 ft 424 kts 304°
2026-05-04 02:26 48.22884 -103.69915 37518 ft 424 kts 304°
2026-05-04 02:27 48.26412 -103.76976 37535 ft 426 kts 308°
2026-05-04 02:27 48.30212 -103.83807 37518 ft 425 kts 307°
2026-05-04 02:28 48.33995 -103.90617 37522 ft 426 kts 308°
2026-05-04 02:28 48.37795 -103.97475 37535 ft 427 kts 307°
2026-05-04 02:29 48.41578 -104.04320 37548 ft 427 kts 307°
2026-05-04 02:29 48.45371 -104.11201 37550 ft 426 kts 307°
2026-05-04 02:30 48.49131 -104.18039 37553 ft 422 kts 307°
2026-05-04 02:30 48.52878 -104.24872 37553 ft 423 kts 307°
2026-05-04 02:31 48.56619 -104.31711 37558 ft 423 kts 307°
2026-05-04 02:31 48.60361 -104.38571 37584 ft 423 kts 307°
2026-05-04 02:32 48.64092 -104.45425 37589 ft 424 kts 307°
2026-05-04 02:32 48.67833 -104.52317 37566 ft 426 kts 307°
2026-05-04 02:33 48.71608 -104.59292 37576 ft 428 kts 307°
2026-05-04 02:33 48.75378 -104.66272 37575 ft 428 kts 307°
2026-05-04 02:34 48.79138 -104.73255 37583 ft 428 kts 307°
2026-05-04 02:34 48.82895 -104.80247 37570 ft 425 kts 307°
2026-05-04 02:35 48.86593 -104.87150 37579 ft 423 kts 307°
2026-05-04 02:35 48.90310 -104.94108 37578 ft 424 kts 307°
2026-05-04 02:36 48.94029 -105.01083 37585 ft 424 kts 307°
2026-05-04 02:36 48.97744 -105.08074 37587 ft 425 kts 307°
2026-05-04 02:37 49.01434 -105.15031 37603 ft 424 kts 307°
2026-05-04 02:37 49.05143 -105.22047 37605 ft 425 kts 307°
2026-05-04 02:38 49.08854 -105.29082 37607 ft 425 kts 307°
2026-05-04 02:38 49.12555 -105.36119 37611 ft 425 kts 307°
2026-05-04 02:39 49.16254 -105.43171 37631 ft 425 kts 307°
2026-05-04 02:39 49.19928 -105.50192 37625 ft 425 kts 307°
2026-05-04 02:40 49.23624 -105.57275 37616 ft 424 kts 307°
2026-05-04 02:40 49.27301 -105.64341 37612 ft 423 kts 307°
2026-05-04 02:41 49.30967 -105.71403 37629 ft 424 kts 307°
2026-05-04 02:41 49.34646 -105.78512 37653 ft 426 kts 307°
2026-05-04 02:42 49.38334 -105.85653 37635 ft 426 kts 307°
2026-05-04 02:42 49.41987 -105.92747 37651 ft 425 kts 307°
2026-05-04 02:43 49.45647 -105.99875 37645 ft 424 kts 307°
2026-05-04 02:43 49.49284 -106.06976 37646 ft 425 kts 307°
2026-05-04 02:44 49.52924 -106.14103 37646 ft 428 kts 307°
2026-05-04 02:44 49.56591 -106.21302 37653 ft 426 kts 307°
2026-05-04 02:45 49.60244 -106.28492 37662 ft 425 kts 307°
2026-05-04 02:45 49.63883 -106.35675 37767 ft 423 kts 307°
2026-05-04 02:46 49.67535 -106.42904 37730 ft 429 kts 308°
2026-05-04 02:46 49.71185 -106.50147 37769 ft 429 kts 308°
2026-05-04 02:47 49.74838 -106.57417 37769 ft 427 kts 308°
2026-05-04 02:47 49.78474 -106.64672 37763 ft 426 kts 307°
2026-05-04 02:48 49.82103 -106.71935 37778 ft 426 kts 307°
2026-05-04 02:48 49.85734 -106.79220 37782 ft 428 kts 307°
2026-05-04 02:49 49.89346 -106.86489 37792 ft 429 kts 307°
2026-05-04 02:49 49.92987 -106.93835 37791 ft 429 kts 307°
2026-05-04 02:50 49.96612 -107.01168 37783 ft 427 kts 307°
2026-05-04 02:50 50.00218 -107.08485 37777 ft 425 kts 307°
2026-05-04 02:51 50.03817 -107.15808 37786 ft 427 kts 307°
2026-05-04 02:51 50.07415 -107.23150 37796 ft 431 kts 308°
2026-05-04 02:52 50.11048 -107.30582 37802 ft 430 kts 308°
2026-05-04 02:52 50.14669 -107.38012 37803 ft 430 kts 307°
2026-05-04 02:53 50.18278 -107.45436 37800 ft 429 kts 307°
2026-05-04 02:53 50.21267 -107.51602 37791 ft 428 kts 307°
2026-05-04 02:54 50.25441 -107.60239 37786 ft 429 kts 308°
2026-05-04 02:54 50.28448 -107.66475 37785 ft 428 kts 308°
2026-05-04 02:55 50.34136 -107.77270 37793 ft 430 kts 310°
2026-05-04 02:56 50.37969 -107.84380 37831 ft 429 kts 311°
2026-05-04 02:56 50.41830 -107.91554 37868 ft 431 kts 310°
2026-05-04 02:57 50.45696 -107.98761 37845 ft 430 kts 311°
2026-05-04 02:57 50.49544 -108.05951 37848 ft 429 kts 311°
2026-05-04 02:58 50.53357 -108.13099 37858 ft 429 kts 311°
2026-05-04 02:58 50.57197 -108.20314 37863 ft 430 kts 311°
2026-05-04 02:59 50.61033 -108.27545 37861 ft 431 kts 311°
2026-05-04 02:59 50.64886 -108.34824 37864 ft 432 kts 311°
2026-05-04 03:00 50.68738 -108.42124 37869 ft 432 kts 311°
2026-05-04 03:00 50.72553 -108.49374 37875 ft 432 kts 311°
2026-05-04 03:01 50.76385 -108.56679 37878 ft 430 kts 311°
2026-05-04 03:01 50.80209 -108.63986 37873 ft 433 kts 311°
2026-05-04 03:02 50.84056 -108.71360 37880 ft 435 kts 311°
2026-05-04 03:02 50.87915 -108.78778 37895 ft 436 kts 311°
2026-05-04 03:03 50.91739 -108.86149 37893 ft 435 kts 311°
2026-05-04 03:03 50.95581 -108.93578 37891 ft 434 kts 310°
2026-05-04 03:04 50.99415 -109.01010 37886 ft 435 kts 311°
2026-05-04 03:04 51.03221 -109.08411 37893 ft 434 kts 310°
2026-05-04 03:05 51.07042 -109.15863 37889 ft 434 kts 310°
2026-05-04 03:05 51.10855 -109.23319 37894 ft 434 kts 310°
2026-05-04 03:06 51.14666 -109.30793 37899 ft 435 kts 310°
2026-05-04 03:06 51.18472 -109.38280 37899 ft 434 kts 311°
2026-05-04 03:07 51.22256 -109.45744 37905 ft 435 kts 311°
2026-05-04 03:07 51.26061 -109.53273 37908 ft 436 kts 311°
2026-05-04 03:08 51.29873 -109.60837 37913 ft 437 kts 311°
2026-05-04 03:08 51.33648 -109.68351 37903 ft 435 kts 310°
2026-05-04 03:09 51.37441 -109.75920 37901 ft 435 kts 310°
2026-05-04 03:09 51.41229 -109.83504 37900 ft 436 kts 310°
2026-05-04 03:10 51.45008 -109.91090 37905 ft 436 kts 310°
2026-05-04 03:10 51.48784 -109.98694 37898 ft 435 kts 310°
2026-05-04 03:11 51.52553 -110.06307 37907 ft 435 kts 310°
2026-05-04 03:11 51.56318 -110.13932 37911 ft 439 kts 310°
2026-05-04 03:12 51.60094 -110.21605 37913 ft 436 kts 310°
2026-05-04 03:12 51.63865 -110.29290 37910 ft 437 kts 310°
2026-05-04 03:13 51.67638 -110.37002 37924 ft 438 kts 310°
2026-05-04 03:13 51.71386 -110.44685 37927 ft 438 kts 310°
2026-05-04 03:14 51.75153 -110.52430 37933 ft 438 kts 310°
2026-05-04 03:14 51.78906 -110.60170 37933 ft 437 kts 310°
2026-05-04 03:15 51.82649 -110.67915 37934 ft 437 kts 310°
2026-05-04 03:15 51.86396 -110.75688 37933 ft 437 kts 310°
2026-05-04 03:16 51.90106 -110.83409 37941 ft 439 kts 310°
2026-05-04 03:16 51.93858 -110.91243 37944 ft 440 kts 310°
2026-05-04 03:17 51.97610 -110.99101 37923 ft 439 kts 310°
2026-05-04 03:17 52.01322 -111.06896 37940 ft 436 kts 310°
2026-05-04 03:18 52.05025 -111.14696 37945 ft 436 kts 310°
2026-05-04 03:18 52.08728 -111.22523 37949 ft 437 kts 310°
2026-05-04 03:19 52.12419 -111.30346 37959 ft 439 kts 310°
2026-05-04 03:19 52.16137 -111.38251 37969 ft 439 kts 310°
2026-05-04 03:20 52.19851 -111.46173 37972 ft 439 kts 310°
2026-05-04 03:20 52.23557 -111.54101 37974 ft 439 kts 310°
2026-05-04 03:21 52.27242 -111.62008 37980 ft 441 kts 310°
2026-05-04 03:21 52.30954 -111.69999 37981 ft 442 kts 310°
2026-05-04 03:22 52.34669 -111.78023 37988 ft 442 kts 310°
2026-05-04 03:22 52.38367 -111.86037 37981 ft 438 kts 310°
2026-05-04 03:23 52.41994 -111.93916 37968 ft 436 kts 310°
2026-05-04 03:23 52.45646 -112.01877 37980 ft 437 kts 310°
2026-05-04 03:24 52.49307 -112.09883 37985 ft 439 kts 310°
2026-05-04 03:24 52.52970 -112.17916 37990 ft 439 kts 310°
2026-05-04 03:25 52.56600 -112.25904 37991 ft 439 kts 310°
2026-05-04 03:25 52.60241 -112.33942 37990 ft 438 kts 310°
2026-05-04 03:26 52.63883 -112.42006 37988 ft 439 kts 310°
2026-05-04 03:26 52.67532 -112.50111 37989 ft 440 kts 310°
2026-05-04 03:27 52.71172 -112.58225 38004 ft 440 kts 309°
2026-05-04 03:27 52.74806 -112.66349 37995 ft 440 kts 309°
2026-05-04 03:28 52.78388 -112.74419 38009 ft 433 kts 309°
2026-05-04 03:28 52.81830 -112.82541 37998 ft 431 kts 309°
2026-05-04 03:29 52.85317 -112.90644 38009 ft 433 kts 309°
2026-05-04 03:29 52.88794 -112.98813 38009 ft 434 kts 309°
2026-05-04 03:30 52.92277 -113.06999 38025 ft 435 kts 309°
2026-05-04 03:30 52.95759 -113.15216 38031 ft 435 kts 309°
2026-05-04 03:31 52.99218 -113.23403 38037 ft 438 kts 309°
2026-05-04 03:31 53.02710 -113.31698 38035 ft 438 kts 308°
2026-05-04 03:32 53.06195 -113.40001 38036 ft 437 kts 308°
2026-05-04 03:32 53.09659 -113.48283 38017 ft 435 kts 308°
2026-05-04 03:33 53.13091 -113.56512 38010 ft 435 kts 308°
2026-05-04 03:33 53.16506 -113.64735 38001 ft 426 kts 308°
2026-05-04 03:34 53.19873 -113.72855 37994 ft 427 kts 308°
2026-05-04 03:34 53.23258 -113.81055 38014 ft 430 kts 308°
2026-05-04 03:35 53.26652 -113.89302 38011 ft 430 kts 308°
2026-05-04 03:35 53.30035 -113.97547 38024 ft 429 kts 308°
2026-05-04 03:36 53.33378 -114.05723 38037 ft 428 kts 308°
2026-05-04 03:36 53.36737 -114.13962 38040 ft 427 kts 308°
2026-05-04 03:37 53.40077 -114.22185 38041 ft 427 kts 308°
2026-05-04 03:37 53.43423 -114.30446 38040 ft 429 kts 308°
2026-05-04 03:38 53.46777 -114.38756 38055 ft 430 kts 308°
2026-05-04 03:38 53.50126 -114.47083 38061 ft 430 kts 308°
2026-05-04 03:39 53.53445 -114.55365 38051 ft 422 kts 308°
2026-05-04 03:39 53.56722 -114.63560 38052 ft 422 kts 308°
2026-05-04 03:40 53.59976 -114.71729 38050 ft 424 kts 308°
2026-05-04 03:40 53.63259 -114.79997 38056 ft 425 kts 308°
2026-05-04 03:41 53.66556 -114.88328 38064 ft 426 kts 308°
2026-05-04 03:41 53.69276 -114.95225 38065 ft 424 kts 308°
2026-05-04 03:42 53.72533 -115.03503 38066 ft 422 kts 308°
2026-05-04 03:42 53.75772 -115.11765 38068 ft 422 kts 308°
2026-05-04 03:43 53.79006 -115.20042 38067 ft 422 kts 308°
2026-05-04 03:43 53.82240 -115.28346 38076 ft 423 kts 308°
2026-05-04 03:44 53.85455 -115.36627 38077 ft 423 kts 308°
2026-05-04 03:44 53.88672 -115.44945 38077 ft 419 kts 308°
2026-05-04 03:45 53.91873 -115.53241 38086 ft 420 kts 308°
2026-05-04 03:45 53.95072 -115.61567 38089 ft 420 kts 308°
2026-05-04 03:46 53.98242 -115.69841 38104 ft 420 kts 308°
2026-05-04 03:46 54.01424 -115.78175 38099 ft 420 kts 308°
2026-05-04 03:47 54.04592 -115.86505 38104 ft 419 kts 308°
2026-05-04 03:47 54.07752 -115.94835 38101 ft 418 kts 308°
2026-05-04 03:48 54.10908 -116.03184 38114 ft 420 kts 308°
2026-05-04 03:48 54.14051 -116.11530 38069 ft 420 kts 307°
2026-05-04 03:49 54.17203 -116.19924 38089 ft 420 kts 307°
2026-05-04 03:49 54.20344 -116.28318 38122 ft 419 kts 307°
2026-05-04 03:50 54.23470 -116.36702 38122 ft 417 kts 307°
2026-05-04 03:50 54.26554 -116.44998 38129 ft 416 kts 307°
2026-05-04 03:51 54.29665 -116.53396 38131 ft 418 kts 307°
2026-05-04 03:51 54.32769 -116.61806 38138 ft 418 kts 307°
2026-05-04 03:52 54.35876 -116.70250 38143 ft 418 kts 307°
2026-05-04 03:52 54.38973 -116.78700 38142 ft 416 kts 307°
2026-05-04 03:53 54.42022 -116.87042 38139 ft 414 kts 307°
2026-05-04 03:53 54.45083 -116.95447 38141 ft 414 kts 307°
2026-05-04 03:54 54.48134 -117.03851 38137 ft 415 kts 307°
2026-05-04 03:54 54.51183 -117.12281 38136 ft 415 kts 307°
2026-05-04 03:55 54.54231 -117.20739 38143 ft 415 kts 307°
2026-05-04 03:55 54.57242 -117.29121 38151 ft 413 kts 307°
2026-05-04 03:56 54.60258 -117.37542 38152 ft 413 kts 307°
2026-05-04 03:56 54.63266 -117.45975 38152 ft 413 kts 307°
2026-05-04 03:57 54.66277 -117.54441 38154 ft 414 kts 307°
2026-05-04 03:57 54.69293 -117.62952 38163 ft 415 kts 307°
2026-05-04 03:58 54.73774 -117.75658 38159 ft 411 kts 307°
2026-05-04 03:58 54.76739 -117.84093 38154 ft 410 kts 307°
2026-05-04 03:59 54.79706 -117.92567 38152 ft 411 kts 306°
2026-05-04 03:59 54.82671 -118.01066 38154 ft 412 kts 306°
2026-05-04 04:00 54.85633 -118.09585 38159 ft 412 kts 306°
2026-05-04 04:00 54.88585 -118.18105 38155 ft 411 kts 306°
2026-05-04 04:01 54.91501 -118.26554 38154 ft 409 kts 306°
2026-05-04 04:01 54.94421 -118.35039 38131 ft 409 kts 306°
2026-05-04 04:02 54.97330 -118.43524 38164 ft 408 kts 306°
2026-05-04 04:02 55.00239 -118.52035 38147 ft 410 kts 306°
2026-05-04 04:03 55.03148 -118.60583 38124 ft 410 kts 306°
2026-05-04 04:03 55.06055 -118.69147 38113 ft 408 kts 306°
2026-05-04 04:04 55.08930 -118.77655 38102 ft 405 kts 306°
2026-05-04 04:04 55.11790 -118.86139 38082 ft 406 kts 305°
2026-05-04 04:05 55.14638 -118.94621 38103 ft 408 kts 305°
2026-05-04 04:05 55.17505 -119.03192 38096 ft 408 kts 305°
2026-05-04 04:06 55.20437 -119.11692 38156 ft 407 kts 306°
2026-05-04 04:06 55.23362 -119.20183 38170 ft 407 kts 306°
2026-05-04 04:07 55.26273 -119.28696 38165 ft 407 kts 306°
2026-05-04 04:07 55.29161 -119.37144 38163 ft 406 kts 306°
2026-05-04 04:08 55.32055 -119.45660 38161 ft 406 kts 306°
2026-05-04 04:08 55.34958 -119.54213 38159 ft 408 kts 306°
2026-05-04 04:09 55.37856 -119.62798 38158 ft 408 kts 306°
2026-05-04 04:09 55.40750 -119.71394 38157 ft 409 kts 306°
2026-05-04 04:10 55.43628 -119.79976 38158 ft 409 kts 306°
2026-05-04 04:10 55.46516 -119.88615 38162 ft 409 kts 306°
2026-05-04 04:11 55.49399 -119.97271 38160 ft 409 kts 306°
2026-05-04 04:11 55.52274 -120.05934 38161 ft 409 kts 306°
2026-05-04 04:12 55.55121 -120.14545 38125 ft 409 kts 305°
2026-05-04 04:12 55.57983 -120.23232 38127 ft 408 kts 305°
2026-05-04 04:13 55.60841 -120.31936 38126 ft 408 kts 305°
2026-05-04 04:13 55.63682 -120.40620 38123 ft 407 kts 305°
2026-05-04 04:14 55.66496 -120.49256 38128 ft 407 kts 305°
2026-05-04 04:14 55.69335 -120.57994 38145 ft 410 kts 305°
2026-05-04 04:15 55.72178 -120.66784 38148 ft 410 kts 305°
2026-05-04 04:15 55.74992 -120.75511 38158 ft 408 kts 305°
2026-05-04 04:16 55.77802 -120.84259 38159 ft 408 kts 305°
2026-05-04 04:16 55.80615 -120.93047 38162 ft 409 kts 305°
2026-05-04 04:17 55.83424 -121.01855 38165 ft 410 kts 305°
2026-05-04 04:17 55.86215 -121.10641 38166 ft 410 kts 305°
2026-05-04 04:18 55.89018 -121.19498 38169 ft 409 kts 305°
2026-05-04 04:18 55.91804 -121.28332 38164 ft 408 kts 305°
2026-05-04 04:19 55.94564 -121.37114 38168 ft 408 kts 304°
2026-05-04 04:19 55.97339 -121.45979 38168 ft 409 kts 304°
2026-05-04 04:20 56.00111 -121.54868 38172 ft 410 kts 304°
2026-05-04 04:20 56.02877 -121.63774 38123 ft 409 kts 305°
2026-05-04 04:21 56.05636 -121.72681 38162 ft 410 kts 304°
2026-05-04 04:21 56.08392 -121.81621 38165 ft 410 kts 304°
2026-05-04 04:22 56.11147 -121.90589 38157 ft 409 kts 304°
2026-05-04 04:22 56.13872 -121.99493 38155 ft 409 kts 304°
2026-05-04 04:23 56.16613 -122.08482 38154 ft 409 kts 304°
2026-05-04 04:23 56.19342 -122.17466 38154 ft 409 kts 304°
2026-05-04 04:24 56.22041 -122.26389 38152 ft 407 kts 304°
2026-05-04 04:24 56.24740 -122.35338 38161 ft 408 kts 304°
2026-05-04 04:25 56.27444 -122.44343 38158 ft 410 kts 304°
2026-05-04 04:25 56.30151 -122.53394 38164 ft 410 kts 304°
2026-05-04 04:26 56.32851 -122.62456 38160 ft 410 kts 304°
2026-05-04 04:26 56.35539 -122.71511 38164 ft 409 kts 303°
2026-05-04 04:27 56.38181 -122.80453 38164 ft 402 kts 303°
2026-05-04 04:27 56.40826 -122.89417 38154 ft 405 kts 303°
2026-05-04 04:28 56.43465 -122.98418 38162 ft 407 kts 303°
2026-05-04 04:28 56.46092 -123.07404 38149 ft 405 kts 303°
2026-05-04 04:29 56.48723 -123.16438 38159 ft 406 kts 303°
2026-05-04 04:29 56.50899 -123.23941 38148 ft 403 kts 303°
2026-05-04 04:30 56.53929 -123.34421 38154 ft 405 kts 303°
2026-05-04 04:30 56.56104 -123.41976 38146 ft 405 kts 302°
2026-05-04 04:31 56.58708 -123.51057 38148 ft 405 kts 302°
2026-05-04 04:31 56.61299 -123.60123 38141 ft 404 kts 302°
2026-05-04 04:32 56.63890 -123.69227 38131 ft 406 kts 302°
2026-05-04 04:32 56.66472 -123.78347 38115 ft 407 kts 302°
2026-05-04 04:33 56.69037 -123.87414 38126 ft 401 kts 302°
2026-05-04 04:33 56.71586 -123.96470 38098 ft 403 kts 301°
2026-05-04 04:34 56.74110 -124.05486 38130 ft 401 kts 301°
2026-05-04 04:34 56.76645 -124.14566 38136 ft 402 kts 301°
2026-05-04 04:35 56.79172 -124.23657 38128 ft 402 kts 301°
2026-05-04 04:35 56.81691 -124.32753 38161 ft 399 kts 301°
2026-05-04 04:36 56.84203 -124.41867 38137 ft 402 kts 301°
2026-05-04 04:36 56.86718 -124.51020 38131 ft 402 kts 301°
2026-05-04 04:37 56.91687 -124.69217 38126 ft 401 kts 301°
2026-05-04 04:38 56.94165 -124.78355 38123 ft 399 kts 301°
2026-05-04 04:38 56.96641 -124.87502 38125 ft 401 kts 301°
2026-05-04 04:39 56.99083 -124.96608 38144 ft 400 kts 301°
2026-05-04 04:39 57.01415 -125.05890 38140 ft 401 kts 299°
2026-05-04 04:40 57.03682 -125.15274 38084 ft 403 kts 298°
2026-05-04 04:40 57.05940 -125.24728 38141 ft 406 kts 298°
2026-05-04 04:41 57.08188 -125.34158 38138 ft 404 kts 298°
2026-05-04 04:41 57.10434 -125.43638 38134 ft 405 kts 298°
2026-05-04 04:42 57.12678 -125.53124 38142 ft 403 kts 298°
2026-05-04 04:42 57.14908 -125.62628 38126 ft 404 kts 298°
2026-05-04 04:43 57.17130 -125.72093 38134 ft 403 kts 298°
2026-05-04 04:43 57.19338 -125.81571 38142 ft 405 kts 297°
2026-05-04 04:44 57.21543 -125.91082 38139 ft 402 kts 298°
2026-05-04 04:44 57.23744 -126.00604 38142 ft 403 kts 297°
2026-05-04 04:45 57.25940 -126.10176 38132 ft 407 kts 297°
2026-05-04 04:47 57.33544 -126.43549 38139 ft 405 kts 297°
2026-05-04 04:47 57.35716 -126.53193 38155 ft 406 kts 296°
2026-05-04 04:48 57.37881 -126.62846 38153 ft 407 kts 296°
2026-05-04 04:49 57.43240 -126.86918 38150 ft 401 kts 296°
2026-05-04 04:49 57.45357 -126.96513 38160 ft 402 kts 296°
2026-05-04 04:50 57.47468 -127.06124 38167 ft 403 kts 296°
2026-05-04 04:50 57.49584 -127.15778 38138 ft 402 kts 296°
2026-05-04 04:51 57.51682 -127.25436 38160 ft 402 kts 296°
2026-05-04 04:51 57.53773 -127.35081 38161 ft 402 kts 295°
2026-05-04 04:52 57.55847 -127.44706 38151 ft 403 kts 295°
2026-05-04 04:52 57.57931 -127.54408 38157 ft 405 kts 295°
2026-05-04 04:53 57.60022 -127.64189 38166 ft 406 kts 295°
2026-05-04 04:53 57.62109 -127.74002 38166 ft 407 kts 295°
2026-05-04 04:54 57.64188 -127.83833 38168 ft 407 kts 295°
2026-05-04 04:54 57.66256 -127.93644 38172 ft 406 kts 294°
2026-05-04 04:55 57.68311 -128.03456 38178 ft 405 kts 294°
2026-05-04 04:55 57.70348 -128.13216 38177 ft 406 kts 294°
2026-05-04 04:56 57.72390 -128.23058 38173 ft 406 kts 294°
2026-05-04 04:56 57.74431 -128.32933 38174 ft 407 kts 294°
2026-05-04 04:57 57.76466 -128.42842 38186 ft 407 kts 294°
2026-05-04 04:57 57.78494 -128.52743 38187 ft 406 kts 293°
2026-05-04 04:58 57.80504 -128.62625 38197 ft 406 kts 293°
2026-05-04 04:58 57.82508 -128.72523 38188 ft 405 kts 293°
2026-05-04 04:59 57.84503 -128.82417 38196 ft 406 kts 293°
2026-05-04 04:59 57.86478 -128.92272 38194 ft 405 kts 293°
2026-05-04 05:00 57.88455 -129.02176 38201 ft 405 kts 293°
2026-05-04 05:01 57.91413 -129.17077 38199 ft 405 kts 292°
2026-05-04 05:01 57.93376 -129.27064 38215 ft 407 kts 292°
2026-05-04 05:02 57.95331 -129.37024 38210 ft 406 kts 292°
2026-05-04 05:02 57.97278 -129.47013 38212 ft 406 kts 292°
2026-05-04 05:03 57.99221 -129.57021 38223 ft 407 kts 292°
2026-05-04 05:04 58.03074 -129.77029 38237 ft 406 kts 291°
2026-05-04 05:04 58.04975 -129.86982 38222 ft 404 kts 291°
2026-05-04 05:06 58.12584 -130.27323 38247 ft 408 kts 291°
2026-05-04 05:07 58.14472 -130.37471 38248 ft 409 kts 290°
2026-05-04 05:07 58.16343 -130.47568 38242 ft 409 kts 290°
2026-05-04 05:09 58.24679 -130.93266 38249 ft 408 kts 290°
2026-05-04 05:10 58.26516 -131.03486 38264 ft 409 kts 290°
2026-05-04 05:10 58.28340 -131.13694 38262 ft 406 kts 290°
2026-05-04 05:11 58.30135 -131.23789 38257 ft 405 kts 289°
2026-05-04 05:11 58.31934 -131.33970 38268 ft 406 kts 289°
2026-05-04 05:12 58.33735 -131.44206 38285 ft 408 kts 289°
2026-05-04 05:12 58.35524 -131.54442 38296 ft 407 kts 289°
2026-05-04 05:13 58.37296 -131.64632 38301 ft 407 kts 289°
2026-05-04 05:13 58.39073 -131.74906 38299 ft 409 kts 289°
2026-05-04 05:14 58.40845 -131.85216 38311 ft 409 kts 289°
2026-05-04 05:14 58.42599 -131.95479 38319 ft 409 kts 289°
2026-05-04 05:15 58.44355 -132.05808 38333 ft 409 kts 289°
2026-05-04 05:15 58.46103 -132.16142 38316 ft 407 kts 288°
2026-05-04 05:16 58.47837 -132.26481 38312 ft 410 kts 288°
2026-05-04 05:16 58.49574 -132.36853 38331 ft 410 kts 288°
2026-05-04 05:17 58.51294 -132.47223 38343 ft 410 kts 288°
2026-05-04 05:17 58.53017 -132.57648 38344 ft 412 kts 288°
2026-05-04 05:18 58.54722 -132.68044 38351 ft 410 kts 288°
2026-05-04 05:18 58.56150 -132.76789 38362 ft 412 kts 288°
2026-05-04 05:19 58.57839 -132.87197 38373 ft 412 kts 288°
2026-05-04 05:19 58.59536 -132.97696 38381 ft 411 kts 288°
2026-05-04 05:20 58.61214 -133.08163 38380 ft 409 kts 287°
2026-05-04 05:20 58.62884 -133.18646 38382 ft 411 kts 287°
2026-05-04 05:21 58.64552 -133.29148 38380 ft 410 kts 287°
2026-05-04 05:21 58.66196 -133.39601 38376 ft 412 kts 287°
2026-05-04 05:22 58.67850 -133.50149 38369 ft 412 kts 287°
2026-05-04 05:22 58.69490 -133.60692 38362 ft 412 kts 287°
2026-05-04 05:23 58.71118 -133.71210 38368 ft 411 kts 287°
2026-05-04 05:23 58.72731 -133.81726 38359 ft 409 kts 286°
2026-05-04 05:24 58.74338 -133.92232 38348 ft 410 kts 286°
2026-05-04 05:24 58.75934 -134.02743 38350 ft 409 kts 285°
2026-05-04 05:25 58.77520 -134.13266 38352 ft 408 kts 285°
2026-05-04 05:25 58.79091 -134.23742 38346 ft 409 kts 285°
2026-05-04 05:26 58.80660 -134.34301 38360 ft 408 kts 284°
2026-05-04 05:26 58.82221 -134.44815 38340 ft 406 kts 284°
2026-05-04 05:28 58.88351 -134.86918 38338 ft 410 kts 284°
2026-05-04 05:29 58.89872 -134.97523 38349 ft 407 kts 284°
2026-05-04 05:29 58.91425 -135.08054 38334 ft 406 kts 284°
2026-05-04 05:31 58.97703 -135.50160 38330 ft 409 kts 284°
2026-05-04 05:32 58.99254 -135.60761 38329 ft 409 kts 283°
2026-05-04 05:33 59.01566 -135.76670 38351 ft 408 kts 283°
2026-05-04 05:33 59.03096 -135.87287 38346 ft 408 kts 283°
2026-05-04 05:34 59.04613 -135.97903 38338 ft 408 kts 283°
2026-05-04 05:34 59.06115 -136.08465 38338 ft 408 kts 283°
2026-05-04 05:35 59.07620 -136.19122 38347 ft 407 kts 283°
2026-05-04 05:35 59.09111 -136.29753 38350 ft 407 kts 283°
2026-05-04 05:36 59.10592 -136.40383 38280 ft 406 kts 282°
2026-05-04 05:36 59.12062 -136.51010 38355 ft 409 kts 282°
2026-05-04 05:37 59.13544 -136.61794 38356 ft 413 kts 282°
2026-05-04 05:37 59.15012 -136.72534 38362 ft 412 kts 282°
2026-05-04 05:38 59.17208 -136.88761 38326 ft 412 kts 282°
2026-05-04 05:38 59.18657 -136.99581 38341 ft 413 kts 282°
2026-05-04 05:39 59.20816 -137.15813 38328 ft 413 kts 282°
2026-05-04 05:40 59.22958 -137.32100 38316 ft 413 kts 281°
2026-05-04 05:40 59.24368 -137.42910 38317 ft 412 kts 281°
2026-05-04 05:41 59.25777 -137.53811 38310 ft 414 kts 281°
2026-05-04 05:41 59.27181 -137.64727 38318 ft 414 kts 281°
2026-05-04 05:42 59.28574 -137.75654 38332 ft 413 kts 281°
2026-05-04 05:42 59.29954 -137.86552 38314 ft 415 kts 281°
2026-05-04 05:43 59.31338 -137.97567 38334 ft 416 kts 281°
2026-05-04 05:45 59.36769 -138.41608 38322 ft 415 kts 280°
2026-05-04 05:47 59.42029 -138.85611 38366 ft 412 kts 279°
2026-05-04 05:47 59.43325 -138.96680 38337 ft 415 kts 279°
2026-05-04 05:48 59.44613 -139.07741 38340 ft 414 kts 279°
2026-05-04 05:48 59.45880 -139.18733 38324 ft 414 kts 279°
2026-05-04 05:49 59.47146 -139.29795 38317 ft 416 kts 278°
2026-05-04 05:49 59.48408 -139.40924 38319 ft 417 kts 278°
2026-05-04 05:51 59.54525 -139.85105 38328 ft 421 kts 283°
2026-05-04 05:52 59.56358 -139.95968 38324 ft 419 kts 282°
2026-05-04 05:52 59.58179 -140.06881 38322 ft 419 kts 282°
2026-05-04 05:54 59.65431 -140.50911 38304 ft 423 kts 282°
2026-05-04 05:55 59.67225 -140.61969 38305 ft 421 kts 282°
2026-05-04 05:55 59.69002 -140.73005 38308 ft 420 kts 282°
2026-05-04 05:56 59.70771 -140.84054 38310 ft 422 kts 282°
2026-05-04 05:56 59.72536 -140.95149 38286 ft 423 kts 281°
2026-05-04 05:57 59.74301 -141.06319 38364 ft 425 kts 281°
2026-05-04 05:57 59.76068 -141.17555 38311 ft 427 kts 281°
2026-05-04 05:58 59.77822 -141.28795 38306 ft 426 kts 281°
2026-05-04 05:58 59.79560 -141.40011 38308 ft 425 kts 281°
2026-05-04 05:59 59.81277 -141.51158 38309 ft 424 kts 281°
2026-05-04 05:59 59.82991 -141.62359 38306 ft 423 kts 281°
2026-05-04 06:00 59.84701 -141.73606 38323 ft 426 kts 280°
2026-05-04 06:00 59.86413 -141.84947 38310 ft 428 kts 280°
2026-05-04 06:01 59.88120 -141.96324 38309 ft 428 kts 280°
2026-05-04 06:03 59.94838 -142.41882 38289 ft 430 kts 280°
2026-05-04 06:05 60.01926 -142.91362 38286 ft 428 kts 279°
2026-05-04 06:06 60.03802 -143.04714 38331 ft 430 kts 279°
2026-05-04 06:06 60.05414 -143.16275 38301 ft 431 kts 279°
2026-05-04 06:07 60.07014 -143.27834 38286 ft 430 kts 279°
2026-05-04 06:07 60.08341 -143.37491 38284 ft 429 kts 279°
2026-05-04 06:08 60.09905 -143.48939 38272 ft 428 kts 278°
2026-05-04 06:08 60.11467 -143.60467 38281 ft 429 kts 278°
2026-05-04 06:09 60.13025 -143.72046 38290 ft 430 kts 278°
2026-05-04 06:11 60.19155 -144.18437 38261 ft 421 kts 278°
2026-05-04 06:11 60.19886 -144.24028 38261 ft 407 kts 278°
2026-05-04 06:13 60.24511 -144.60191 35961 ft 373 kts 276°
2026-05-04 06:14 60.28270 -144.90222 33123 ft 363 kts 275°
2026-05-04 06:14 60.28880 -144.95156 32626 ft 362 kts 275°
2026-05-04 06:15 60.29480 -145.00018 32144 ft 363 kts 275°
2026-05-04 06:15 60.30087 -145.04972 31671 ft 365 kts 276°
2026-05-04 06:15 60.30699 -145.09976 31259 ft 371 kts 276°
2026-05-04 06:15 60.31319 -145.15072 30809 ft 377 kts 276°
2026-05-04 06:16 60.31951 -145.20255 30372 ft 382 kts 276°
2026-05-04 06:16 60.32587 -145.25482 29863 ft 385 kts 276°
2026-05-04 06:16 60.33223 -145.30744 29368 ft 387 kts 276°
2026-05-04 06:16 60.33860 -145.36040 28881 ft 388 kts 276°
2026-05-04 06:17 60.34496 -145.41354 28390 ft 390 kts 276°
2026-05-04 06:17 60.35133 -145.46691 27910 ft 391 kts 276°
2026-05-04 06:17 60.35763 -145.51985 27432 ft 394 kts 277°
2026-05-04 06:17 60.36402 -145.57379 26971 ft 396 kts 277°
2026-05-04 06:18 60.37043 -145.62807 26502 ft 398 kts 277°
2026-05-04 06:18 60.37687 -145.68285 26057 ft 401 kts 277°
2026-05-04 06:18 60.38333 -145.73792 25620 ft 403 kts 277°
2026-05-04 06:20 60.42788 -146.12414 22420 ft 397 kts 277°
2026-05-04 06:20 60.43405 -146.17851 21918 ft 395 kts 277°
2026-05-04 06:21 60.45828 -146.39425 20020 ft 390 kts 277°
2026-05-04 06:21 60.46424 -146.44780 19582 ft 389 kts 277°
2026-05-04 06:22 60.47017 -146.50133 19138 ft 389 kts 277°
2026-05-04 06:22 60.47608 -146.55489 18697 ft 389 kts 277°
2026-05-04 06:25 60.50911 -147.23842 15028 ft 365 kts 270°
2026-05-04 06:25 60.51122 -147.28968 14758 ft 363 kts 270°
2026-05-04 06:26 60.51331 -147.34064 14496 ft 362 kts 271°
2026-05-04 06:26 60.51535 -147.39075 14235 ft 360 kts 271°
2026-05-04 06:26 60.51740 -147.44158 13964 ft 359 kts 271°
2026-05-04 06:26 60.51941 -147.49191 13663 ft 357 kts 270°
2026-05-04 06:27 60.52713 -147.69035 12479 ft 350 kts 270°
2026-05-04 06:28 60.52901 -147.73957 12192 ft 347 kts 270°
2026-05-04 06:28 60.53084 -147.78835 11916 ft 346 kts 270°
2026-05-04 06:28 60.53266 -147.83709 11638 ft 345 kts 270°
2026-05-04 06:28 60.53444 -147.88512 11761 ft 336 kts 270°
2026-05-04 06:29 60.53617 -147.93308 12090 ft 345 kts 270°
2026-05-04 06:29 60.53792 -147.98204 12412 ft 348 kts 270°
2026-05-04 06:29 60.53969 -148.03120 12724 ft 350 kts 270°
2026-05-04 06:29 60.54146 -148.08065 13055 ft 352 kts 270°
2026-05-04 06:30 60.54319 -148.13033 13377 ft 353 kts 270°
2026-05-04 06:30 60.54493 -148.18017 13701 ft 355 kts 270°
2026-05-04 06:30 60.54665 -148.23051 14008 ft 359 kts 270°
2026-05-04 06:30 60.54834 -148.28118 14286 ft 367 kts 270°
2026-05-04 06:31 60.55010 -148.33303 14544 ft 367 kts 270°
2026-05-04 06:31 60.55183 -148.38524 14510 ft 371 kts 270°
2026-05-04 06:31 60.55354 -148.43721 14485 ft 366 kts 270°
2026-05-04 06:31 60.55521 -148.48868 14454 ft 365 kts 270°
2026-05-04 06:32 60.55685 -148.54025 14430 ft 365 kts 270°
2026-05-04 06:33 60.56771 -148.89678 14260 ft 361 kts 269°
2026-05-04 06:34 60.56916 -148.94779 14232 ft 361 kts 269°
2026-05-04 06:34 60.57059 -148.99873 14165 ft 359 kts 269°
2026-05-04 06:34 60.57204 -149.04965 14145 ft 362 kts 269°
2026-05-04 06:34 60.57348 -149.10064 13664 ft 361 kts 271°
2026-05-04 06:35 60.57487 -149.15301 13641 ft 381 kts 273°
2026-05-04 06:36 60.58421 -149.51360 13464 ft 379 kts 273°
2026-05-04 06:37 60.58551 -149.56689 13426 ft 374 kts 272°
2026-05-04 06:37 60.58686 -149.61952 13781 ft 366 kts 269°
2026-05-04 06:37 60.58801 -149.67014 13656 ft 353 kts 268°
2026-05-04 06:37 60.58906 -149.72011 13494 ft 354 kts 268°
2026-05-04 06:38 60.59018 -149.77022 13361 ft 356 kts 268°
2026-05-04 06:38 60.59133 -149.82053 13236 ft 356 kts 268°
2026-05-04 06:40 60.59853 -150.16186 12737 ft 307 kts 267°
2026-05-04 06:40 60.59932 -150.20440 12576 ft 295 kts 267°
2026-05-04 06:40 60.60011 -150.24489 12375 ft 280 kts 266°
2026-05-04 06:40 60.60082 -150.28324 11711 ft 270 kts 267°
2026-05-04 06:41 60.60152 -150.32190 11839 ft 276 kts 268°
2026-05-04 06:41 60.60230 -150.35980 11576 ft 261 kts 266°
2026-05-04 06:41 60.60289 -150.39646 11340 ft 258 kts 265°
2026-05-04 06:41 60.60348 -150.43278 11082 ft 256 kts 266°
2026-05-04 06:42 60.60412 -150.46878 10840 ft 253 kts 266°
2026-05-04 06:42 60.60475 -150.50440 10595 ft 252 kts 266°
2026-05-04 06:42 60.60534 -150.54014 10361 ft 252 kts 266°
2026-05-04 06:44 60.60928 -150.78964 8511 ft 251 kts 267°
2026-05-04 06:44 60.60981 -150.82500 8263 ft 247 kts 267°
2026-05-04 06:44 60.61030 -150.85897 8023 ft 246 kts 267°
2026-05-04 06:45 60.61082 -150.89434 7761 ft 247 kts 267°
2026-05-04 06:45 60.61129 -150.92883 7511 ft 246 kts 267°
2026-05-04 06:45 60.61175 -150.96362 7255 ft 246 kts 268°
2026-05-04 06:45 60.61222 -150.99849 7000 ft 246 kts 268°
2026-05-04 06:46 60.61269 -151.03294 6965 ft 242 kts 268°
2026-05-04 06:46 60.61313 -151.06747 6964 ft 245 kts 268°
2026-05-04 06:46 60.61533 -151.10197 6952 ft 251 kts 287°
2026-05-04 06:46 60.62516 -151.13143 6958 ft 257 kts 315°
2026-05-04 06:48 60.73832 -151.06527 6798 ft 232 kts 29°
2026-05-04 06:48 60.75264 -151.05011 6755 ft 231 kts 29°
2026-05-04 06:49 60.76691 -151.03499 6719 ft 230 kts 29°
2026-05-04 06:50 60.86616 -150.92956 6108 ft 229 kts 29°
2026-05-04 06:51 60.88029 -150.91449 5889 ft 226 kts 29°
2026-05-04 06:51 60.89376 -150.90015 5621 ft 210 kts 30°
2026-05-04 06:51 60.90652 -150.88651 5375 ft 204 kts 31°
2026-05-04 06:51 60.91887 -150.87329 5120 ft 197 kts 31°
2026-05-04 06:52 60.92685 -150.86473 4952 ft 194 kts 31°
2026-05-04 06:52 60.93878 -150.85195 4697 ft 192 kts 31°
2026-05-04 06:52 60.95051 -150.83937 4478 ft 188 kts 32°
2026-05-04 06:52 60.96208 -150.82695 4316 ft 187 kts 32°
2026-05-04 06:53 60.97734 -150.81054 4141 ft 186 kts 32°
2026-05-04 06:53 60.98878 -150.79824 4005 ft 184 kts 32°
2026-05-04 06:53 60.99644 -150.79000 3873 ft 183 kts 32°
2026-05-04 06:53 61.00763 -150.77798 3656 ft 180 kts 32°
2026-05-04 06:54 61.01850 -150.76608 3269 ft 180 kts 27°
2026-05-04 06:54 61.02960 -150.75433 3223 ft 177 kts 30°
2026-05-04 06:54 61.04019 -150.74288 3033 ft 172 kts 32°
2026-05-04 06:54 61.05073 -150.73147 2924 ft 171 kts 32°
2026-05-04 06:55 61.06128 -150.72005 2818 ft 171 kts 32°
2026-05-04 06:55 61.07179 -150.70868 2707 ft 170 kts 32°
2026-05-04 06:55 61.08226 -150.69735 2606 ft 170 kts 31°
2026-05-04 06:55 61.09267 -150.68608 2540 ft 169 kts 31°
2026-05-04 06:56 61.10322 -150.67463 2499 ft 174 kts 31°
2026-05-04 06:57 61.16609 -150.57393 2013 ft 170 kts 89°
2026-05-04 06:58 61.16607 -150.54989 1989 ft 165 kts 90°
2026-05-04 06:58 61.16614 -150.52560 2002 ft 171 kts 89°
2026-05-04 06:58 61.16630 -150.50121 2002 ft 170 kts 89°
2026-05-04 06:58 61.16644 -150.47647 1989 ft 171 kts 89°
2026-05-04 06:59 61.16659 -150.45185 1987 ft 171 kts 89°
2026-05-04 06:59 61.16673 -150.42721 1988 ft 172 kts 89°
2026-05-04 06:59 61.16687 -150.40283 1998 ft 171 kts 89°
2026-05-04 06:59 61.16699 -150.37820 1996 ft 171 kts 89°
2026-05-04 07:01 61.16750 -150.20700 1590 ft 168 kts 89°
2026-05-04 07:01 61.16756 -150.18311 1594 ft 168 kts 89°
2026-05-04 07:02 61.16761 -150.15871 1474 ft 171 kts 89°
2026-05-04 07:02 61.16765 -150.13420 1223 ft 169 kts 88°
2026-05-04 07:02 61.16759 -150.11030 853 ft 159 kts 89°
2026-05-04 07:02 61.16772 -150.08748 522 ft 161 kts 90°
2026-05-04 07:03 61.16771 -150.06427 414 ft 160 kts 91°
2026-05-04 07:03 61.16783 -150.04126 209 ft 158 kts 92°
2026-05-04 07:03 61.16788 -150.01883 153 ft 149 kts 91°
2026-05-04 07:03 61.16785 -150.00054 125 ft 93 kts 90°
2026-05-04 07:04 61.16786 -149.99232 127 ft 41 kts 89°
2026-05-04 07:04 61.16791 -149.98693 122 ft 34 kts 84°
2026-05-04 07:04 61.16855 -149.98259 124 ft 29 kts 63°
2026-05-04 07:04 61.16886 -149.98145 122 ft 0 kts 59°
2026-05-04 07:05 61.16892 -149.98123 120 ft 8 kts 59°
2026-05-04 07:05 61.16958 -149.97902 120 ft 26 kts 52°
2026-05-04 07:05 61.17078 -149.97844 123 ft 16 kts 327°
2026-05-04 07:06 61.17119 -149.98558 123 ft 28 kts 274°
2026-05-04 07:06 61.17173 -149.98732 118 ft 16 kts 327°
2026-05-04 07:06 61.17274 -149.98743 122 ft 12 kts 31°
2026-05-04 07:07 61.17286 -149.98667 123 ft 4 kts 94°
2026-05-04 07:08 61.17272 -149.98580 126 ft 0 kts 109°